GW4359 Weather Reports


time (UTC)temp
C
wind
direction
speed
KPH
gust
KPH
rain 1hr
cm
rain 24hr
cm
rain mn
cm
humidity
%
barometer
mb
20260505173050 20 193 1.6 9.7 0.00 0.00 0.00 59 1015.7
20260505171547 20 179 6.4 14.5 0.00 0.00 0.00 60 1016.1
20260505170045 21 236 9.7 22.5 0.00 0.00 0.00 60 1015.9
20260505164558 21 194 4.8 25.7 0.00 0.00 0.00 61 1016.0
20260505163051 21 246 8.0 14.5 0.00 0.00 0.00 62 1016.3
20260505161544 21 191 3.2 17.7 0.00 0.00 0.00 65 1016.4
20260505153047 20 283 9.7 22.5 0.00 0.00 0.00 68 1016.1
20260505151536 19 243 8.0 20.9 0.00 0.00 0.00 69 1016.1
20260505124505 15 167 0.0 4.8 0.00 0.00 0.00 70 1015.8
20260505123002 14 159 0.0 6.4 0.00 0.00 0.00 62 1015.5
20260505121601 13 188 0.0 1.6 0.00 0.00 0.00 49 1015.3
20260505120100 12 188 0.0 3.2 0.00 0.00 0.00 38 1015.2
20260505114555 12 188 0.0 1.6 0.00 0.00 0.00 55 1015.3
20260505113058 11 188 0.0 3.2 0.00 0.00 0.00 60 1015.0
20260505111553 12 188 0.0 1.6 0.00 0.00 0.00 70 1014.7
20260505101536 14 194 0.0 1.6 0.00 0.00 0.00 74 1014.3
20260505100042 14 200 1.6 4.8 0.00 0.00 0.00 74 1014.2
20260505094534 15 217 0.0 9.7 0.00 0.00 0.00 73 1014.0
20260505093034 15 216 0.0 9.7 0.00 0.00 0.00 73 1014.0
20260505091550 15 231 1.6 12.9 0.00 0.00 0.00 73 1013.5
20260505090050 14 234 0.0 6.4 0.00 0.00 0.00 73 1013.5
20260505084537 14 166 0.0 8.0 0.00 0.00 0.00 73 1013.7
20260505083041 14 162 1.6 6.4 0.00 0.00 0.00 74 1013.7
20260505081548 14 171 0.0 6.4 0.00 0.00 0.00 73 1013.8
20260505080038 15 165 0.0 3.2 0.00 0.00 0.00 73 1014.0
20260505074526 15 150 3.2 6.4 0.00 0.00 0.00 72 1014.2
20260505073024 15 160 0.0 3.2 0.00 0.00 0.00 71 1014.5
20260505071527 15 190 0.0 6.4 0.00 0.00 0.00 71 1014.7
20260505070027 15 169 0.0 4.8 0.00 0.00 0.00 71 1014.8
20260505064521 15 226 0.0 4.8 0.00 0.00 0.00 71 1014.6
20260505063026 15 189 0.0 3.2 0.00 0.00 0.00 70 1014.9
20260505061526 15 183 1.6 6.4 0.00 0.00 0.00 70 1014.9
20260505060017 16 179 0.0 4.8 0.00 0.00 0.00 70 1015.1
20260505054521 15 189 0.0 3.2 0.00 0.00 0.00 71 1015.2
20260505053013 15 161 0.0 8.0 0.00 0.00 0.00 72 1015.2
20260505051511 15 153 0.0 6.4 0.00 0.00 0.00 73 1015.2
20260505041555 13 166 0.0 3.2 0.00 0.00 0.00 74 1015.2
20260505040053 13 167 0.0 4.8 0.00 0.00 0.00 74 1015.2
20260505034546 13 169 0.0 4.8 0.00 0.00 0.00 74 1015.1
20260505033049 14 169 1.6 4.8 0.00 0.00 0.00 74 1015.1
20260505031537 15 170 0.0 4.8 0.00 0.00 0.00 73 1015.1
20260505030033 15 169 0.0 3.2 0.00 0.00 0.00 72 1015.0
20260505024550 15 163 0.0 6.4 0.00 0.00 0.00 73 1015.0
20260505023034 15 171 0.0 3.2 0.00 0.00 0.00 73 1014.9
20260505021538 15 177 0.0 1.6 0.00 0.00 0.00 73 1014.9
20260505020016 15 175 0.0 3.2 0.00 0.00 0.00 72 1014.8
20260505014513 16 176 0.0 4.8 0.00 0.00 0.00 71 1014.7
20260505013006 17 205 0.0 1.6 0.00 0.00 0.00 67 1014.7
20260505011503 18 205 1.6 3.2 0.00 0.00 0.00 62 1014.6
20260505010058 20 207 0.0 1.6 0.00 0.00 0.00 58 1014.5
20260505004553 21 207 0.0 3.2 0.00 0.00 0.00 52 1014.5
20260505003049 21 220 0.0 9.7 0.00 0.00 0.00 50 1014.4
20260505001545 22 215 3.2 12.9 0.00 0.00 0.00 49 1014.3
20260505000044 22 221 4.8 9.7 0.00 0.00 0.00 50 1014.3
20260504234536 23 202 3.2 14.5 0.00 0.00 0.00 48 1014.3
20260504233039 23 235 4.8 17.7 0.00 0.00 0.00 47 1014.3
20260504231527 23 229 6.4 17.7 0.00 0.00 0.00 45 1014.3
20260504230027 23 231 8.0 14.5 0.00 0.00 0.00 44 1014.3
20260504224522 23 140 6.4 17.7 0.00 0.00 0.00 44 1014.3
20260504223014 23 179 8.0 20.9 0.00 0.00 0.00 45 1014.3
20260504221510 24 250 14.5 27.4 0.00 0.00 0.00 44 1014.3
20260504220006 24 160 6.4 19.3 0.00 0.00 0.00 44 1014.5
20260504214501 24 227 4.8 19.3 0.00 0.00 0.00 45 1014.5
20260504213122 24 180 9.7 22.5 0.00 0.00 0.00 48 1014.6
20260504211554 24 204 6.4 20.9 0.00 0.00 0.00 46 1014.7
20260504210048 24 238 9.7 24.1 0.00 0.00 0.00 47 1014.9
20260504204559 24 237 9.7 19.3 0.00 0.00 0.00 45 1015.0
20260504203041 23 180 6.4 27.4 0.00 0.00 0.00 49 1015.2
20260504201536 23 238 4.8 25.7 0.00 0.00 0.00 49 1015.4
20260504200031 24 203 12.9 27.4 0.00 0.00 0.00 48 1015.7
20260504194529 23 244 11.3 29.0 0.00 0.00 0.00 49 1015.8
20260504193022 24 246 8.0 17.7 0.00 0.00 0.00 49 1016.0
20260504191517 23 213 8.0 24.1 0.00 0.00 0.00 48 1016.1
20260504190013 23 206 11.3 27.4 0.00 0.00 0.00 50 1016.3
20260504184511 23 188 8.0 27.4 0.00 0.00 0.00 52 1016.5
20260504183005 23 247 8.0 22.5 0.00 0.00 0.00 52 1016.5
20260504181611 23 223 6.4 29.0 0.00 0.00 0.00 50 1016.8
20260504180056 23 269 9.7 24.1 0.00 0.00 0.00 52 1017.0
20260504174551 23 250 11.3 25.7 0.00 0.00 0.00 52 1017.1